RH
7 8 7 7 7 7 7 8 10 11 11 13 24 97 99 98 95 92 97 98 93 87 93 88 85 74 73 92 83 71 74 75 63 37 21 21 23 26 24 26 30 26 14
13 10 8 8 9 8 8 10 14 17 16 13 13 23 93 97 97 98 96 99 96 99 97 88 86 78 76 82 95 80 81 87 77 51 24 12 13 22 22 24 23 17 6
21 20 19 16 16 18 18 20 18 20 18 18 16 15 17 36 91 95 97 95 98 98 96 92 88 82 80 90 96 83 91 87 91 65 38 16 9 14 21 22 20 12 4
35 35 34 33 31 31 34 38 34 29 28 22 23 27 24 23 26 73 94 98 100 100 98 98 90 90 80 89 98 95 94 89 92 85 57 36 16 16 24 20 13 10 5
39 41 40 41 43 43 43 48 49 50 52 48 37 33 29 25 24 29 41 85 93 97 86 100 97 97 86 83 73 83 97 94 94 94 84 68 40 22 23 19 11 7 5
38 40 44 50 51 48 45 45 50 52 55 55 54 47 37 31 32 31 28 39 64 83 83 70 82 93 100 96 90 78 74 91 95 99 92 88 76 46 24 22 13 8 6
36 41 50 49 55 62 66 61 57 57 58 58 56 58 54 45 40 37 28 24 28 35 58 62 32 37 62 82 82 82 70 71 94 98 99 95 94 67 35 28 18 12 8
59 70 75 67 67 71 77 78 74 68 69 70 66 65 61 62 56 43 36 38 32 21 32 40 32 35 26 26 56 67 75 74 79 83 95 99 97 77 46 32 23 19 12
64 83 84 84 80 79 83 87 84 76 70 79 81 65 56 56 65 56 50 46 37 35 26 19 28 40 36 29 20 26 54 70 71 94 97 99 97 83 60 45 30 22 21
74 73 74 71 64 69 80 87 88 84 75 75 82 91 71 59 62 65 61 58 55 48 37 24 20 16 17 18 17 17 17 33 53 93 95 99 97 97 83 56 38 27 22
90 87 82 79 87 91 90 95 100 100 95 80 83 87 89 81 75 66 67 73 60 55 49 41 31 19 18 21 23 22 21 15 26 46 85 93 98 99 96 73 46 32 18
98 100 98 100 100 100 100 98 98 98 100 100 98 99 91 87 93 96 70 73 81 74 59 56 49 42 36 34 29 26 22 22 15 19 47 100 89 96 97 93 71 42 29
88 94 98 95 98 100 99 100 98 98 97 98 100 100 95 94 94 97 95 79 79 85 81 72 66 60 55 47 38 34 29 20 20 16 21 69 100 100 96 98 81 58 36
98 100 100 100 100 100 98 100 100 99 99 99 98 100 99 100 100 97 87 83 77 76 82 74 71 65 60 57 45 37 30 26 19 18 15 22 84 100 100 100 94 90 48
99 100 100 100 100 100 100 100 100 100 100 100 100 97 97 100 100 99 94 88 82 68 66 68 62 56 52 48 43 35 30 27 24 17 14 13 19 89 100 100 96 95 53
100 100 100 100 100 100 100 100 99 95 87 83 79 76 71 67 63 59 56 53 51 50 52 51 46 37 33 33 34 31 28 24 22 18 14 12 13 35 97 100 100 85 64
100 100 100 100 100 100 100 97 85 81 75 64 59 55 48 42 36 27 17 16 14 13 12 19 19 21 18 18 19 22 21 19 17 16 14 11 12 13 44 98 100 97 71
100 100 100 100 100 100 87 82 78 70 60 49 31 11 4 3 4 4 4 4 5 6 6 5 6 7 9 8 9 12 13 14 14 13 12 11 10 12 13 69 100 100 100
100 100 100 100 92 83 76 70 56 28 4 2 2 4 6 8 8 8 8 7 7 7 7 6 5 5 5 5 5 5 7 7 8 8 8 8 8 9 11 40 100 96 100
100 100 98 92 84 74 44 8 3 6 9 9 9 9 7 6 6 7 8 8 10 9 8 9 7 6 6 5 5 5 4 4 4 5 5 6 6 9 11 28 100 100 99
93 94 92 76 33 7 8 12 11 10 9 7 7 10 12 17 19 26 26 34 38 36 33 30 26 17 12 12 7 7 6 5 4 4 7 5 6 73 29 12 89 100 97
96 80 29 9 12 14 12 10 9 8 10 14 26 47 63 59 70 76 69 64 58 54 55 66 68 56 50 54 58 33 16 5 4 5 10 13 23 100 96 29 59 100 100
47 12 14 16 14 11 10 9 13 14 20 44 58 71 81 91 90 79 91 94 76 46 45 68 63 56 65 69 77 99 58 23 6 5 16 17 15 81 100 73 100 97 100
16 18 16 12 10 11 13 16 21 32 42 54 61 73 75 79 84 83 80 71 57 53 47 58 74 67 60 77 99 100 98 50 26 14 31 39 28 25 62 100 100 100 100
18 16 12 11 12 15 24 48 40 41 56 71 70 64 73 74 82 88 87 82 90 94 86 76 66 81 77 83 99 100 89 100 38 33 28 47 48 27 36 53 100 100 100
16 12 12 15 17 23 48 50 32 42 57 57 65 68 86 94 100 98 87 89 77 93 100 100 98 94 100 100 100 100 98 91 92 28 45 50 51 50 52 58 100 100 100
Wind_Speed
34 35 35 35 36 35 34 34 33 33 34 35 36 44 35 42 43 66 72 63 59 53 55 58 54 52 49 52 54 52 50 47 43 40 40 38 37 36 36 35 34 32 31
35 37 39 40 40 40 40 39 37 36 34 33 34 31 34 35 44 41 49 45 58 63 60 60 59 58 55 55 55 57 55 51 48 43 41 41 39 36 36 37 35 34 32
43 43 43 43 45 46 46 45 45 44 41 39 36 33 31 36 37 47 59 54 49 65 64 60 59 58 58 53 52 61 60 54 51 47 42 41 41 39 38 38 37 35 34
50 51 51 50 50 49 47 47 49 49 48 44 41 38 37 32 30 39 32 53 51 54 66 65 63 58 61 64 47 54 60 59 55 49 45 43 44 43 40 39 38 37 36
51 53 54 54 54 53 51 50 50 49 49 48 47 44 41 39 36 32 31 34 33 39 52 63 63 62 61 57 54 52 54 59 60 54 49 47 46 47 44 41 38 36 36
56 59 61 59 58 58 57 57 56 54 51 50 49 48 47 44 41 39 36 33 34 34 35 33 37 48 54 56 57 58 55 54 57 61 56 53 49 50 49 44 42 39 38
60 64 70 71 70 65 60 59 59 59 59 56 51 49 49 50 47 46 44 40 37 35 36 37 37 37 40 45 49 56 58 55 54 56 62 57 54 53 52 48 44 43 41
63 67 67 66 68 69 69 67 64 60 59 58 57 52 50 51 53 51 50 48 47 44 42 41 43 41 38 43 46 48 51 58 51 51 57 58 58 56 54 52 49 46 46
71 70 67 67 68 67 66 67 67 66 62 58 58 57 53 52 54 55 55 54 53 51 48 47 47 47 43 38 39 46 48 52 52 47 53 57 59 58 58 57 54 50 49
74 74 71 68 68 66 64 64 64 63 63 63 61 58 58 55 54 54 57 57 57 56 55 53 51 51 48 45 42 41 44 47 53 54 57 58 64 63 63 62 58 55 52
71 70 67 65 62 64 63 65 62 61 61 62 61 59 59 58 56 55 56 58 61 61 59 57 56 57 53 51 49 47 44 46 50 54 54 61 61 64 68 66 62 58 55
65 64 61 61 59 59 62 63 63 62 60 59 60 59 57 59 57 56 57 59 59 60 62 60 58 55 55 54 55 53 52 49 54 56 59 57 60 61 70 71 66 62 58
62 61 60 60 60 65 64 61 61 60 58 56 56 56 57 56 57 57 58 58 62 60 61 61 61 60 59 60 60 59 57 56 54 56 59 63 60 63 69 76 70 66 63
60 59 57 59 60 64 65 64 61 59 58 54 53 53 54 54 55 57 59 60 62 63 63 62 63 65 65 64 64 64 63 61 60 56 58 62 66 58 72 81 75 72 69
61 57 57 56 62 65 67 65 62 57 54 53 52 52 53 54 56 58 60 62 66 67 65 64 65 66 67 68 68 69 67 65 63 63 62 62 64 68 75 79 79 74 74
59 56 56 62 65 68 67 62 59 57 56 54 54 55 57 60 62 64 66 68 70 72 73 70 70 70 70 72 71 72 74 72 68 67 66 65 64 73 75 79 78 80 79
57 57 60 62 66 64 62 60 59 59 62 64 67 69 69 71 71 72 71 72 73 74 77 74 77 77 75 75 77 77 78 76 73 71 70 72 70 70 77 74 83 84 85
54 55 59 59 59 60 61 61 64 68 72 75 75 76 74 73 73 74 75 76 76 75 78 76 76 79 82 80 80 83 83 82 81 80 77 73 74 73 76 81 74 86 87
53 54 55 57 59 62 65 70 74 75 75 76 76 77 77 76 76 75 73 72 71 71 71 74 73 75 78 83 84 85 89 87 85 82 81 81 78 78 78 73 82 87 92
51 53 56 60 65 70 72 73 74 76 77 76 75 73 70 65 62 60 59 57 55 57 58 59 62 67 69 73 78 83 88 93 92 86 84 84 83 83 84 85 79 87 93
52 56 62 67 69 71 73 75 75 74 71 64 54 48 42 39 38 37 37 34 37 37 37 37 37 40 49 54 61 65 76 87 94 90 88 87 84 82 88 91 90 83 93
58 64 65 67 69 72 73 71 68 58 45 38 31 30 30 30 29 29 31 32 35 36 37 41 40 37 34 38 41 46 57 71 88 91 87 89 92 87 90 92 99 82 87
62 63 65 69 70 69 63 55 45 39 32 28 28 29 29 31 33 33 35 36 35 38 38 42 40 42 41 41 43 45 47 56 71 87 85 86 91 101 87 86 83 89 85
62 65 68 68 65 56 46 42 33 28 28 30 32 33 34 35 38 39 40 40 41 44 45 43 40 43 43 44 46 47 47 48 50 67 78 80 83 89 93 87 69 70 84
64 67 65 59 52 40 34 31 28 28 31 32 35 38 38 38 41 45 44 45 46 46 46 47 45 42 42 42 46 47 44 46 47 55 69 74 72 79 86 98 69 85 73
65 63 54 47 38 32 27 26 28 33 33 36 38 41 42 43 42 40 38 34 33 34 39 47 50 50 50 48 46 46 44 46 47 51 54 69 69 71 74 76 80 67 68
Wind_Direction
290 291 290 290 291 291 290 291 292 295 298 304 315 256 246 249 249 253 250 245 250 245 247 247 246 248 253 251 244 247 251 253 253 254 255 252 250 250 252 252 251 250 247
287 286 287 287 287 287 287 289 289 290 291 292 295 302 272 240 230 250 254 256 253 248 247 246 246 251 255 254 256 243 247 249 254 253 253 253 249 248 249 250 249 245 241
291 290 288 288 289 291 291 290 288 288 288 289 289 290 288 286 286 260 248 254 247 245 246 247 245 247 251 255 253 245 245 248 250 254 251 253 251 247 247 246 246 244 242
298 296 295 293 290 289 288 287 287 287 286 283 281 280 280 277 277 289 273 246 245 245 246 244 244 248 249 246 250 245 249 248 248 251 254 253 254 250 247 245 242 241 242
296 295 293 291 289 288 285 282 280 281 281 282 280 276 272 271 271 267 273 279 265 245 248 246 245 247 249 251 253 253 251 246 245 247 250 251 251 253 248 246 244 241 240
302 301 300 297 294 290 287 285 283 282 279 275 273 271 270 266 263 261 257 255 263 270 264 267 259 250 243 252 248 247 250 249 248 246 248 248 250 250 249 245 244 242 241
296 295 296 295 296 294 290 286 283 279 277 275 271 268 265 264 261 258 258 254 247 246 252 256 258 259 260 254 247 246 246 249 251 246 248 248 245 246 246 244 243 245 242
296 298 296 294 294 293 292 290 286 282 278 274 273 266 259 257 257 258 256 254 252 248 246 249 253 256 254 258 256 251 243 244 247 248 246 249 244 242 244 244 241 244 245
299 300 299 297 293 290 287 284 282 280 277 274 271 267 260 255 252 254 254 253 252 249 247 247 248 252 252 253 257 257 253 246 245 239 245 249 245 239 242 244 241 240 245
298 298 298 297 294 292 289 285 283 280 278 277 274 269 262 257 251 247 250 249 249 248 245 244 245 248 252 253 253 252 252 247 245 239 235 243 245 239 240 242 241 240 241
302 301 300 298 295 291 288 285 283 281 278 275 275 271 266 261 258 251 243 245 245 245 244 243 241 246 247 251 253 254 250 247 246 243 241 234 236 243 237 239 239 239 240
303 298 296 293 290 288 287 285 283 280 278 276 274 270 265 263 262 259 251 245 243 244 243 243 245 244 246 248 250 252 254 249 243 246 241 237 237 242 240 237 237 237 238
300 297 295 292 289 291 293 290 287 286 283 278 273 269 266 263 261 260 256 251 247 245 244 246 246 245 244 244 246 248 249 251 248 244 243 239 232 238 240 237 233 235 236
297 294 290 290 288 290 294 291 289 287 284 278 271 267 265 263 262 261 259 256 252 248 247 245 244 245 243 244 243 244 244 245 246 245 245 241 237 238 238 237 231 234 235
295 290 291 289 283 287 291 288 287 284 280 278 276 271 267 264 262 261 259 259 260 255 250 248 247 246 246 243 244 244 242 241 241 243 244 245 241 239 234 230 232 234 235
291 288 285 283 285 289 288 287 287 285 283 280 277 274 272 270 267 264 262 261 260 260 257 254 251 249 248 247 244 244 243 241 241 242 243 245 245 241 232 231 231 231 233
290 285 286 286 287 287 288 288 287 286 286 286 284 281 278 276 274 272 269 266 263 261 260 255 255 252 249 247 247 244 244 243 242 242 242 241 243 244 241 233 235 231 231
291 288 288 289 289 288 288 288 288 288 286 284 283 281 279 276 273 271 269 267 265 264 262 255 253 252 252 250 248 247 244 243 242 242 242 240 240 240 240 238 237 236 232
293 292 292 291 291 291 292 291 289 287 286 285 283 283 282 280 278 276 274 271 268 266 265 263 255 253 249 247 245 244 244 242 241 239 237 236 237 236 236 231 229 232 233
295 294 295 295 295 294 293 292 291 290 289 287 286 285 283 279 276 272 269 266 261 259 258 257 258 255 253 248 244 240 238 238 237 235 235 233 232 230 229 227 230 232 230
300 301 299 298 297 296 296 295 294 292 292 291 285 281 277 272 270 268 265 258 254 251 250 252 254 250 251 250 247 242 237 233 231 230 230 229 227 224 226 225 229 232 234
303 302 301 300 299 299 299 298 297 296 292 287 284 282 280 275 270 265 263 260 257 254 252 254 256 256 256 257 254 251 245 236 229 228 226 226 220 217 223 224 223 234 233
304 304 304 303 303 303 302 300 296 296 292 290 285 282 283 280 276 273 273 270 264 261 261 263 259 256 251 254 257 257 254 246 234 225 225 225 224 219 220 222 228 226 231
308 307 307 307 306 305 301 302 300 298 292 293 292 292 290 285 281 279 277 272 264 262 262 263 259 254 253 251 254 257 257 252 246 233 226 223 225 225 222 216 227 222 222
311 310 310 308 307 304 305 308 306 300 300 295 293 292 290 289 285 281 278 273 271 268 265 263 261 255 254 253 251 254 257 254 244 234 228 224 225 224 223 227 216 217 220
312 312 310 308 305 308 310 306 296 296 295 294 294 292 290 285 279 275 275 275 275 270 263 258 256 256 255 252 249 251 253 251 249 232 222 226 224 224 221 219 219 206 208